This is the latest recevied weather packets stored in our database for station/object AI9F. If no packets are shown the sender has not sent any weather packets the latest 10 day(s).
| Time | Temp. | Humidity | Pressure | Rain* | Wind** | Luminosity | Snow |
|---|---|---|---|---|---|---|---|
| 1778020326 | 10° C | 96% | 1008.7 hPa | 8.89 mm | - | 23 W/m² | - |
| 1778020022 | 10° C | 96% | 1008.8 hPa | 7.87 mm | - | 22 W/m² | - |
| 1778019718 | 10° C | 96% | 1009.1 hPa | 4.83 mm | - | 14 W/m² | - |
| 1778019416 | 10° C | 96% | 1008.9 hPa | 11.94 mm | - | 5 W/m² | - |
| 1778019112 | 10° C | 96% | 1008.9 hPa | 8.89 mm | - | 22 W/m² | - |
| 1778018809 | 10° C | 96% | 1009.1 hPa | 3.05 mm | - | 37 W/m² | - |
| 1778018507 | 10° C | 96% | 1009.1 hPa | 1.27 mm | - | 19 W/m² | - |
| 1778018204 | 10° C | 95% | 1009 hPa | 1.27 mm | - | 16 W/m² | - |
| 1778017902 | 10° C | 95% | 1009.1 hPa | 1.78 mm | - | 21 W/m² | - |
| 1778017600 | 10° C | 95% | 1009 hPa | 3.05 mm | - | 54 W/m² | - |
| 1778017297 | 10° C | 95% | 1009.1 hPa | 4.32 mm | - | 20 W/m² | - |
| 1778016994 | 10° C | 94% | 1009 hPa | 3.05 mm | - | 41 W/m² | - |
| 1778016691 | 10° C | 94% | 1009.2 hPa | 0 mm | - | 29 W/m² | - |
| 1778016387 | 10.56° C | 94% | 1009.2 hPa | 1.78 mm | - | 20 W/m² | - |
| 1778016085 | 10° C | 94% | 1009.2 hPa | 3.56 mm | - | 14 W/m² | - |
| 1778015781 | 10.56° C | 94% | 1008.8 hPa | 1.78 mm | - | 19 W/m² | - |
| 1778015479 | 10.56° C | 94% | 1008.8 hPa | 0 mm | - | 32 W/m² | - |
| 1778015175 | 10.56° C | 94% | 1009.1 hPa | 0 mm | - | 47 W/m² | - |
| 1778014872 | 10.56° C | 93% | 1009 hPa | 0 mm | - | 25 W/m² | - |
| 1778014570 | 10.56° C | 93% | 1008.7 hPa | 1.27 mm | - | 26 W/m² | - |
| 1778014267 | 10.56° C | 93% | 1008.9 hPa | 1.27 mm | - | 47 W/m² | - |
| 1778013964 | 10.56° C | 93% | 1008.7 hPa | 0 mm | - | 57 W/m² | - |
| 1778013661 | 10.56° C | 93% | 1008.5 hPa | 1.78 mm | - | 91 W/m² | - |
| 1778013358 | 11.11° C | 93% | 1008.8 hPa | 1.78 mm | - | 34 W/m² | - |
| 1778013055 | 11.11° C | 93% | 1008.9 hPa | 1.27 mm | - | 54 W/m² | - |
* Rain latest hour (hover to see other rain measurements)
** Current wind speed in m/s (hover to see current wind gust speed)